Date String (YYYY-MM-DD hh:mm:ss) UTC,Instrument flags,absolute air pressure of the measurement (hPa),sample flow rate (lpm),inlet stack bypass flow (lpm),air temperature of the measurement (°C),ambient temperature measured by the external sensor (°C),aerosol sample conditioner tube jacket temperature (°C),OPC LED temperature (°C),internal box temperature (°C),relative humidity of the measurement (%),span deviation,mass concentration of particles derived from Lorenz-Mie calculation of OPC scattering (μg/m³),mass concentration of particles derived from Lorenz-Mie calculation of OPC scattering (μg/m³),mass concentration of particles derived from Lorenz-Mie calculation of OPC scattering (μg/m³)
DateTimeUTC,F1_M11,P_M11,Q1_M11,Q2_M11,T1_M11,T2_M11,T3_M11,T4_M11,T5_M11,U1_M11,ZSPAN_M11,X0_M11,X2_M11,X1_M11
2023-06-16 04:00:00,SystemResetWarning,0830.7,5.01,000.00,030.1,024.8,000.0,038.5,031.3,29.9,0000.0,0009.25,0003.74,0002.87
2023-06-16 04:01:00,SystemResetWarning,0830.8,5.01,000.00,029.9,025.0,000.0,038.5,031.0,30.3,0000.0,0008.97,0003.73,0002.87
2023-06-16 04:02:00,SystemResetWarning,0830.9,5.00,000.00,029.8,025.4,000.0,038.5,031.1,30.5,0000.0,0009.62,0003.73,0002.87
2023-06-16 04:03:00,SystemResetWarning,0830.9,4.99,000.00,029.8,025.9,000.0,038.5,031.1,30.7,0000.0,0009.61,0003.78,0002.87
2023-06-16 04:04:00,SystemResetWarning,0831.0,5.00,000.00,029.8,026.4,000.0,038.4,031.1,30.7,0000.0,0009.20,0003.77,0002.87
2023-06-16 04:05:00,SystemResetWarning,0831.1,5.00,000.00,029.7,026.7,000.0,038.4,031.1,30.8,0000.0,0009.16,0003.76,0002.88
2023-06-16 04:06:00,SystemResetWarning,0831.1,4.99,000.00,029.7,027.0,000.0,038.4,031.2,30.6,0000.0,0009.34,0003.76,0002.87
2023-06-16 04:07:00,SystemResetWarning,0831.2,5.01,000.00,029.7,027.3,000.0,038.4,031.2,30.6,0000.0,0009.80,0003.73,0002.85
2023-06-16 04:08:00,SystemResetWarning,0831.1,5.01,000.00,029.8,027.5,000.0,038.4,031.3,30.8,0000.0,0009.67,0003.71,0002.85
2023-06-16 04:09:00,SystemResetWarning,0831.1,5.00,000.00,029.8,027.7,000.0,038.4,031.3,31.0,0000.0,0010.01,0003.75,0002.86
2023-06-16 04:10:00,SystemResetWarning,0831.1,5.00,000.00,029.8,027.8,000.0,038.4,031.3,31.0,0000.0,0009.82,0003.72,0002.85
2023-06-16 04:11:00,SystemResetWarning,0831.2,5.00,000.00,029.8,028.0,000.0,038.4,031.3,31.1,0000.0,0009.64,0003.71,0002.83
2023-06-16 04:12:00,SystemResetWarning,0831.2,5.01,000.00,029.8,028.1,000.0,038.4,031.4,30.9,0000.0,0009.75,0003.72,0002.83
2023-06-16 04:13:00,SystemResetWarning,0831.2,5.00,000.00,029.8,028.1,000.0,038.4,031.4,31.0,0000.0,0009.36,0003.76,0002.84
2023-06-16 04:14:00,SystemResetWarning,0831.3,5.00,000.00,029.8,028.2,000.0,038.4,031.4,31.2,0000.0,0010.01,0003.73,0002.84
2023-06-16 04:15:00,SystemResetWarning,0831.3,5.00,000.00,029.9,028.2,000.0,038.4,031.4,31.1,0000.0,0010.10,0003.72,0002.84
2023-06-16 04:16:00,SystemResetWarning,0831.3,5.00,000.00,029.9,028.3,000.0,038.4,031.4,30.7,0000.0,0010.16,0003.74,0002.84
2023-06-16 04:17:00,SystemResetWarning,0831.3,5.00,000.00,029.9,028.3,000.0,038.4,031.4,30.7,0000.0,0009.98,0003.74,0002.84
2023-06-16 04:18:00,SystemResetWarning,0831.3,5.00,000.00,029.9,028.3,000.0,038.4,031.4,30.7,0000.0,0009.53,0003.76,0002.85
2023-06-16 04:19:00,SystemResetWarning,0831.4,5.00,000.00,029.9,028.3,000.0,038.5,031.5,30.5,0000.0,0009.54,0003.78,0002.85
2023-06-16 04:20:00,SystemResetWarning,0831.5,4.99,000.00,029.9,028.4,000.0,038.5,031.5,30.4,0000.0,0009.20,0003.75,0002.84
2023-06-16 04:21:00,SystemResetWarning,0831.5,5.00,000.00,029.9,028.4,000.0,038.5,031.5,30.3,0000.0,0009.19,0003.78,0002.84
2023-06-16 04:22:00,SystemResetWarning,0831.4,4.99,000.00,029.9,028.4,000.0,038.5,031.4,30.2,0000.0,0009.10,0003.79,0002.84
2023-06-16 04:23:00,SystemResetWarning,0831.4,5.00,000.00,030.0,028.4,000.0,038.5,031.5,30.1,0000.0,0008.77,0003.81,0002.82
2023-06-16 04:24:00,SystemResetWarning,0831.5,5.00,000.00,030.0,028.4,000.0,038.5,031.5,30.2,0000.0,0008.60,0003.79,0002.80
2023-06-16 04:25:00,SystemResetWarning,0831.5,5.00,000.00,030.0,028.4,000.0,038.5,031.5,30.2,0000.0,0007.91,0003.77,0002.78
2023-06-16 04:26:00,SystemResetWarning,0831.5,5.00,000.00,030.0,028.4,000.0,038.5,031.5,30.1,0000.0,0007.78,0003.75,0002.75
2023-06-16 04:27:00,SystemResetWarning,0831.5,5.00,000.00,030.0,028.4,000.0,038.5,031.5,30.0,0000.0,0007.78,0003.75,0002.73
2023-06-16 04:28:00,SystemResetWarning,0831.6,5.00,000.00,030.0,028.4,000.0,038.5,031.5,30.0,0000.0,0007.80,0003.78,0002.73
2023-06-16 04:29:00,SystemResetWarning,0831.6,5.00,000.00,030.0,028.5,000.0,038.6,031.5,30.0,0000.0,0007.88,0003.78,0002.73
2023-06-16 04:30:00,SystemResetWarning,0831.6,5.00,000.00,030.0,028.4,000.0,038.6,031.5,30.1,0000.0,0008.18,0003.76,0002.70
2023-06-16 04:31:00,SystemResetWarning,0831.6,5.00,000.00,030.0,028.4,000.0,038.6,031.5,30.2,0000.0,0008.04,0003.73,0002.68
2023-06-16 04:32:00,SystemResetWarning,0831.6,5.01,000.00,030.0,028.4,000.0,038.6,031.5,30.3,0000.0,0007.97,0003.72,0002.69
2023-06-16 04:33:00,SystemResetWarning,0831.6,5.00,000.00,030.0,028.4,000.0,038.6,031.5,30.3,0000.0,0007.98,0003.75,0002.69
2023-06-16 04:34:00,SystemResetWarning,0831.6,5.01,000.00,030.0,028.4,000.0,038.6,031.5,30.4,0000.0,0008.05,0003.75,0002.70
2023-06-16 04:35:00,SystemResetWarning,0831.6,5.00,000.00,030.0,028.4,000.0,038.6,031.5,30.4,0000.0,0008.07,0003.74,0002.69
2023-06-16 04:36:00,SystemResetWarning,0831.6,5.00,000.00,030.0,028.5,000.0,038.6,031.5,30.4,0000.0,0008.18,0003.76,0002.69
2023-06-16 04:37:00,SystemResetWarning,0831.6,5.00,000.00,030.0,028.5,000.0,038.6,031.5,30.4,0000.0,0008.21,0003.77,0002.69
2023-06-16 04:38:00,SystemResetWarning,0831.6,5.00,000.00,030.0,028.5,000.0,038.6,031.4,30.5,0000.0,0008.44,0003.77,0002.70
2023-06-16 04:39:00,SystemResetWarning,0831.6,5.00,000.00,030.0,028.5,000.0,038.6,031.4,30.6,0000.0,0008.38,0003.75,0002.70
2023-06-16 04:40:00,SystemResetWarning,0831.6,5.00,000.00,030.0,028.5,000.0,038.6,031.5,30.7,0000.0,0008.48,0003.75,0002.71
2023-06-16 04:41:00,SystemResetWarning,0831.6,5.00,000.00,030.0,028.5,000.0,038.6,031.5,30.7,0000.0,0008.16,0003.78,0002.74
2023-06-16 04:42:00,SystemResetWarning,0831.6,5.00,000.00,030.0,028.5,000.0,038.6,031.5,30.6,0000.0,0008.25,0003.81,0002.76
2023-06-16 04:43:00,SystemResetWarning,0831.6,5.00,000.00,030.0,028.5,000.0,038.6,031.5,30.6,0000.0,0008.28,0003.81,0002.76
2023-06-16 04:44:00,SystemResetWarning,0831.6,5.00,000.00,030.0,028.5,000.0,038.6,031.5,30.4,0000.0,0008.17,0003.78,0002.75
2023-06-16 04:45:00,SystemResetWarning,0831.6,4.99,000.00,030.0,028.5,000.0,038.6,031.5,30.4,0000.0,0008.02,0003.73,0002.76
2023-06-16 04:46:00,SystemResetWarning,0831.7,4.99,000.00,030.0,028.5,000.0,038.6,031.5,30.4,0000.0,0008.58,0003.69,0002.77
2023-06-16 04:47:00,SystemResetWarning,0831.7,5.00,000.00,030.0,028.5,000.0,038.6,031.5,30.6,0000.0,0008.43,0003.65,0002.75
2023-06-16 04:48:00,SystemResetWarning,0831.7,4.99,000.00,030.0,028.5,000.0,038.6,031.5,30.6,0000.0,0008.43,0003.66,0002.73
2023-06-16 04:49:00,SystemResetWarning,0832.1,5.00,000.00,030.0,028.5,000.0,038.6,031.4,30.5,0000.0,0008.22,0003.65,0002.72
2023-06-16 04:50:00,SystemResetWarning,0832.3,5.00,000.00,030.0,028.5,000.0,038.6,031.4,30.5,0000.0,0008.10,0003.63,0002.70
2023-06-16 04:51:00,SystemResetWarning,0831.8,5.01,000.00,030.0,028.5,000.0,038.6,031.4,30.5,0000.0,0008.04,0003.58,0002.68
2023-06-16 04:52:00,SystemResetWarning,0831.8,5.00,000.00,030.0,028.5,000.0,038.6,031.4,30.5,0000.0,0008.00,0003.56,0002.67
2023-06-16 04:53:00,SystemResetWarning,0831.8,5.00,000.00,030.0,028.5,000.0,038.6,031.4,30.6,0000.0,0007.92,0003.53,0002.64
2023-06-16 04:54:00,SystemResetWarning,0831.8,4.99,000.00,030.0,028.5,000.0,038.6,031.4,30.6,0000.0,0007.98,0003.53,0002.62
2023-06-16 04:55:00,SystemResetWarning,0831.9,4.99,000.00,030.0,028.5,000.0,038.6,031.5,30.6,0000.0,0008.05,0003.54,0002.63
2023-06-16 04:56:00,SystemResetWarning,0831.9,5.00,000.00,030.0,028.5,000.0,038.6,031.5,30.6,0000.0,0008.16,0003.55,0002.61
2023-06-16 04:57:00,SystemResetWarning,0831.9,5.00,000.00,030.0,028.5,000.0,038.7,031.5,30.5,0000.0,0007.30,0003.52,0002.59
2023-06-16 04:58:00,SystemResetWarning,0831.9,5.01,000.00,030.0,028.5,000.0,038.7,031.5,30.5,0000.0,0007.25,0003.53,0002.60
2023-06-16 04:59:00,SystemResetWarning,0831.9,5.00,000.00,030.0,028.5,000.0,038.7,031.5,30.4,0000.0,0006.92,0003.50,0002.60
